www.pogodaiklimat.ru

Погода и климат >> Архив погоды >> Индия >> Imphal


ПОГОДА в Imphal

  • Прогноз погоды в Imphal
  • Монитор погоды в Imphal
  • Климат города

АРХИВ ПОГОДЫ в Imphal

Время (UTC), дата Ветер
(напр.,м/с)
 
Видим.   Явления Облачность Т
(С)
Тd
(С)
f
(%)
Тe
(С)
Тes
(С)
Комфортность P
(гПа)
Po
(гПа)
Тmin
(С)
Tmax
(С)
R
(мм)
R24
(мм)
S
(см)
00 18.04 штиль 0 2000 м дымка 8/5 540 м
[Sc Ac trans]
+17.6 +16.6 94 +18 +18 1012.6 925.2 16
03 18.04 штиль 0 4000 м дымка 4/4 540 м
[Sc Ac trans]
+22.0 +19.0 83 +27 +38 душно 1010.4 924.3 +17.2 16
06 18.04 Ю 4 4000 м мгла 8/4 540 м
[Sc Ac trans]
+25.0 +16.6 60 +29 +34 душно 1013.3 923.2
09 18.04 ЮЗ 4 4000 м мгла 8/4 540 м
[Sc Ac trans]
+28.0 +15.8 47 +31 +34 душно 1009.2 920.4
12 18.04 ЮЗ 3 4000 м мгла 8/4 540 м
[Sc Ac trans]
+23.0 +16.7 68 +28 +28 душно 1010.3 920.0 +28.8
15 18.04 ЮЗ 2 4000 м дымка {метель} 8/4 540 м
[Sc Ac trans]
+20.2 +17.7 86 +24 +24 комфорт 1012.3 921.3
00 19.04 штиль 0 2000 м дымка 9/5 240 м
[Sc Ac trans]
+18.0 +16.4 90 +18 +18 1013.8 921.9 10
03 19.04 В 2 4000 м дымка 5/3 300 м
[Sc Ac trans]
+21.4 1014.7 923.8 +16.2 10
06 19.04 Ю 2 4000 м мгла {дождь} 8/4 540 м
[Sc Ac trans]
+25.4 +19.4 69 +31 +39 очень
душно
1011.9 922.4
09 19.04 З 4 4000 м слабый дождь 9/6 300 м
[Cb calv Ac trans]
+26.0 +19.1 66 +31 +33 очень
душно
1004.3 919.8 0.0
12 19.04 З 4 4000 м мгла {дождь} 8/5 540 м
[Sc Ac trans]
+24.0 +19.2 75 +29 +29 душно 1004.8 919.6 +27.5 0.0
15 19.04 штиль 0 4000 м дымка 5/4 540 м
[Sc Ac trans]
+20.8 +18.0 84 +24 +24 комфорт 1007.0 920.9 0.0
00 20.04 штиль 0 2000 м дымка 8/5 540 м
[Sc Ac trans]
+16.4 +14.7 90 +16 +16 1009.0 921.6
03 20.04 штиль 0 4000 м дымка 8/5 540 м
[Sc Ac trans]
+22.0 +19.0 83 +27 +33 душно 1009.4 923.4 +16.2 2
06 20.04 З 2 4000 м слабый дождь 9/6 540 м
[Sc diur, vesp Ac As]
+23.6 +19.1 76 +28 +32 душно 1008.8 922.3 0.0
09 20.04 СВ 1 4000 м мгла {дождь} 5/4 540 м
[Sc diur, vesp Ac trans]
+26.4 +19.5 66 +32 +38 очень
душно
1005.6 920.6 0.0
12 20.04 З 2 4000 м мгла {дождь} 8/5 540 м
[Sc diur, vesp Ac trans]
+25.6 +19.6 69 +31 +31 очень
душно
1005.2 920.7 +27.2 0.0
15 20.04 СЗ 2 4000 м мгла 6/5 600 м
[Sc Ac trans]
+21.4 +18.0 81 +26 +26 душно 1007.9 922.0 0.0
03 21.04 Ю 2 2000 м слабый дождь 10/5 300 м
[St Ac trans]
+20.4 +19.5 95 +25 +28 комфорт 1010.8 924.4 +17.4 4
06 21.04 штиль 0 4000 м слабый дождь 9/5
[Cb cap Ac trans]
+21.6 +18.2 81 +26 +34 душно 1008.6 923.6
09 21.04 С 3 4000 м слабый дождь 10/8 240 м
[Frnb As op]
+20.0 +19.7 98 +24 +24 комфорт 1008.7 922.2 8
12 21.04 СЗ 1 4000 м дымка {дождь} 6/4 300 м
[Sc Ac trans Ci sp]
+21.0 +18.9 88 +27 +27 душно 1006.9 920.8 +22.5 8
15 21.04 СЗ 2 4000 м дымка 9/3 540 м
[Sc As trans Ci fib]
+20.2 +18.3 89 +24 +24 комфорт 1006.8 922.6 8
00 22.04 З 3 2000 м слабый дождь 10/6 240 м
[Cb cap As op]
+18.0 +17.7 98 +18 +18 1016.4 922.6 11
03 22.04 З 2 2000 м дымка {дождь} 8/4 300 м
[Sc Ac trans]
+22.0 +19.9 88 +28 +32 душно 1015.9 925.0 +17.0 13
06 22.04 З 2 4000 м мгла {дождь} 6/3 540 м
[Sc Ac trans]
+26.6 +19.4 65 +32 +43 очень
душно
1016.3 924.0 0.6
09 22.04 З 4 4000 м в посл. час дождь 9/5 540 м
[Sc diur, vesp Ac trans]
+27.4 +21.3 69 +35 +37 очень
душно
1005.9 921.8 0.6
12 22.04 З 2 4000 м в посл. час дождь 9/5 540 м
[Sc diur, vesp Ac trans]
+25.0 +21.5 81 +32 +32 очень
душно
1006.2 921.3 +28.2 0.6
15 22.04 штиль 0 4000 м дымка 8/5 540 м
[Sc Ac trans]
+21.0 +18.5 86 +25 +25 комфорт 1009.2 922.9 0.6
00 23.04 штиль 0 2000 м дымка 8/5 540 м
[Sc Ac trans]
+17.4 +16.4 94 +17 +18 1010.2 923.0 0.6
03 23.04 штиль 0 4000 м мгла 8/5 540 м
[Sc Ac trans]
+26.0 +20.7 73 +33 +38 очень
душно
1009.8 924.9 +17.2 0.6
06 23.04 З 4 4000 м мгла 3/3 600 м
[Sc]
+28.6 +18.7 55 +34 +43 очень
душно
1007.9 923.9
12 23.04 З 2 4000 м мгла 6/3 540 м
[Sc Ac trans]
+27.4 +18.0 57 +32 +32 очень
душно
1004.8 920.9 +30.2
15 23.04 СВ 2 2000 м дымка 4/4 540 м
[Sc]
+22.0 +19.0 83 +27 +27 душно 1014.1 922.6
00 24.04 СВ 1 2000 м дымка 4/3 540 м
[Sc Ci fib]
+17.0 +16.0 94 +18 +18 1010.9 923.5
03 24.04 В 1 4000 м мгла 3/3 540 м
[Sc]
+24.0 +18.5 71 +28 +39 душно 1010.3 924.8 +15.9
06 24.04 З 5 4000 м мгла 8/5 540 м
[Sc diur, vesp Ac trans Ci fib]
+29.2 +14.6 41 +31 +35 жарко 1007.1 923.5
09 24.04 З 4 4000 м мгла 8/4 540 м
[Sc Ac trans]
+28.0 +16.2 49 +31 +34 душно 1005.7 921.6
12 24.04 ЮЗ 1 4000 м мгла 8/4 540 м
[Sc Ac trans]
+26.4 +16.1 53 +30 +30 душно 1009.6 920.5 +30.2
15 24.04 ЮЗ 2 2000 м дымка 6/3 540 м
[Sc Ac trans]
+21.4 +18.0 81 +26 +26 душно 1013.0 922.2

 

Местоположение метеостанции Imphal (Manipur, Индия): широта 24.67 долгота 93.90 высота над уровнем моря 774 м.

В архиве по умолчанию представлена погода в Imphal за последнюю неделю. Архивные данные за месяц целиком и за предыдущие месяцы, начиная с января 2011 года, Вы можете получить, выбрав интересующий диапазон дат из раскрывающегося списка и нажав кнопку "Ввод!".


*Определитесь, кто Вы:
робот инопланетянин человек

Внимание! Время в таблицах - всемирное. Для получения местного времени необходимо прибавить поправку, которая в Imphal равна 5.5 ч.

Смотрите также архив погоды в соседних городах и на ближайших метеорологических станциях:

Погода в Haflong (Assam, Индия) (105 км)
Погода в Homalin (Мьянма) (105 км)
Погода в Kohima (Nagaland, Индия) (110 км)
Погода в Silchar (Assam, Индия) (112 км)
Погода в Mawlaik (Мьянма) (127 км)
Погода в Lumding (Assam, Индия) (140 км)
Погода в Aijal (Mizoram, Индия) (159 км)
Погода в Lengpui (Mizoram, Индия) (160 км)
Погода в Kalewa (Мьянма) (168 км)
Погода в Falam (Мьянма) (196 км)

Пояснения к столбцам:

Ветер - указаны скорость ветра в м/с - средняя за 10 мин, порывы в срок и между сроками (в фигурных скобках) и направление, откуда дует ветер: С - северный, СВ - северо-восточный, В - восточный, ЮВ - юго-восточный, Ю - южный, ЮЗ - юго-западный, З - западный, СЗ - северо-западный.
Видимость - горизонтальная дальность видимости в метрах или километрах. При видимости от 1 до 10 км при отсутствии осадков обычно наблюдается дымка, при ухудшении видимости до 1 км и менее - туман. В сухую погоду видимость может ухудшаться дымом, пылью или мглою.
Явления - указаны атмосферные явления, наблюдавшиеся в срок или в последний час перед сроком; фигурными скобками обозначены явления, наблюдавшиеся между сроками (за 1-3 часа до срока); квадратными скобками обозначены град или гололедные отложения с указанием их диаметра в мм.
Облачность - указаны через наклонную черту общая и нижняя облачность в баллах и высота нижней границы облаков в метрах; квадратными скобками обозначены формы облаков: Ci - перистые, Cs - перисто-слоистые, Cc - перисто-кучевые, Ac - высококучевые, As - высокослоистые, Sc - слоисто-кучевые, Ns - слоисто-дождевые, Cu - кучевые, Cb - кучево-дождевые. Подробнее классификацию облаков см. в Атласе облаков (PDF).
T - Температура воздуха - температура, измеренная на высоте 2 м над землей.
Td - Температура точки росы - температура, при понижении до которой содержащийся в воздухе водяной пар достигнет насыщения.
f - Относительная влажность воздуха - влажноcть воздуха, измеренная на высоте 2 м над землей.
Te - Эффективная температура - температура, которую ощущает одетый по сезону человек в тени. Характеристика душности погоды. При расчете учитывается влияние влажности воздуха и скорости ветра на теплоощущения человека.
Tes - Эффективная температура на солнце - температура, которую ощущает человек, с поправкой на солнечный нагрев. Характеристика знойности погоды. Зависит от высоты солнца над горизонтом, облачности и скорости ветра. Ночью, в пасмурную погоду, а также при ветре 12 м/с и более поправка равна нулю.
P - Атмосферное давление - приведенное к уровню моря атмосферное давление.
Po - Атмосферное давление - измеренное на уровне метеостанции атмосферное давление.
Tmin - Минимальная температура - минимум температуры воздуха на высоте 2 м над землей.
Tmax - Максимальная температура - максимум температуры воздуха на высоте 2 м над землей.
R - Количество осадков - Количество выпавших осадков за период времени, мм. При наведении курсора мыши на число - период времени, за который выпало указанное количество осадков.
R24 - Количество осадков - Количество выпавших осадков за 24 часа, мм.
S - Снежный покров - Высота снежного покрова, см. При наведении курсора мыши на число - состояние снежного покрова и степень покрытия местности в баллах.